Regional Weather Roundup
Issued by NWS

Home | Current Version | Previous Version | Graphics & Text | Print | Product List | Glossary On
Versions: 1 2 3 4 5 6 7 8 9 10 11 12 13 14 15 16 17 18 19 20 21 22 23 24 25 26 27 28 29 30 31 32 33 34 35 36 37 38 39 40 41 42 43 44 45 46 47 48 49 50
000
ASUS43 KLMK 290110
RWRKY
KENTUCKY REGIONAL WEATHER ROUNDUP
NATIONAL WEATHER SERVICE LOUISVILLE KY
900 PM EDT THU MAY 28 2015

NOTE "FAIR" INDICATES FEW OR NO CLOUDS BELOW 12,000 FEET
WITH NO SIGNIFICANT WEATHER AND/OR OBSTRUCTIONS TO VISIBILITY.

KYZ001>023-026-027-061>063-070>075-290200-
WESTERN AND SOUTH CENTRAL KENTUCKY

CITY           SKY/WX    TMP DP  RH WIND       PRES   REMARKS
PADUCAH        MOCLDY    79  67  66 CALM      30.06F
HENDERSON      CLEAR     77  66  69 S3        30.07S
OWENSBORO      CLEAR     79  67  66 SE7       30.10S
HOPKINSVILLE   CLEAR     78  66  65 VRB2      30.10S
BOWLING GREEN  PTCLDY    77  65  66 E3        30.13R
GLASGOW        PTCLDY    74  64  71 E3        30.14S
$$

KYZ024-025-028>034-038-045-046-053-290200-
NORTH CENTRAL KENTUCKY

CITY           SKY/WX    TMP DP  RH WIND       PRES   REMARKS
LOUISVILLE/SDF PTCLDY    76  67  73 E8        30.13S
LOUISVILLE/LOU PTCLDY    75  68  78 E5        30.14S
FORT KNOX      PTCLDY    73  64  73 E7        30.12S
$$

KYZ035>037-039>044-047>052-055>060-089>105-290200-
NORTHEAST KENTUCKY

CITY           SKY/WX    TMP DP  RH WIND       PRES   REMARKS
LEXINGTON      MOCLDY    73  64  73 S6        30.18R
COVINGTON      PTCLDY    74  63  68 CALM      30.16R
FRANKFORT      MOCLDY    73  65  75 S3        30.16R
$$

KYZ054-064>069-076>088-106>120-290200-
SOUTHEAST KENTUCKY

CITY           SKY/WX    TMP DP  RH WIND       PRES   REMARKS
JACKSON        CLOUDY    74  66  76 CALM      30.20R
LONDON         LGT RAIN  73  65  75 CALM      30.19S
SOMERSET       CLOUDY    68  66  94 CALM      30.20R
MIDDLESBORO    CLOUDY    73  68  87 W3        30.20R
MONTICELLO     PTCLDY    70  69  96 CALM      30.21R
$$




USA.gov is the U.S. government's official web portal to all federal, state and local government web resources and services.